Starlink 32890

operational
NORAD ID: 62896 Int'l Des: 2025-024 Owner: SPXS Country: US Constellation: starlink
LEOCIRCULAR

About Starlink 32890

Description loading...

Live Position

Loading 3D Globe...

Upcoming Passes

Altitude History

Altitude vs Time

uPlot chart will show altitude changes over time

Two-Line Element Set

1 62896U 25024T 25353.60392918 .00026907 00000-0 98334-3 0 9994
2 62896 42.9994 57.1484 0001533 278.1975 81.8703 15.27593216 50025
Epoch: Dec 19, 2025 • Age: 22 hours

Current Status

Altitude 490.6 km
Velocity 7.62 km/s
Sub-Earth Point -31.70°S, 97.81°E
Launch Date Feb 4, 2025
Age 0.8 years
Type internet

Technical Details

Classification Payload
Mass 730.00 kg
Dry Mass 700.00 kg
Total Mass 730.00 kg
Length 0.30 m
Diameter 4.10 m
Span 29.00 m
Shape Box + pan
Manufacturer SPXS
Bus Type Starlink V2M
Phase Status In Orbit
Owner/State SPXS/US

Large Constellations

Loading constellations...